sat.trackr.live / text

‹ back to catalog

UNKNOWN

NORAD 89261

UNKNOWN UNKNOWN UNKNOWN

§ Identity

Operator
Country
Launch date
Launch site
Launch vehicle
Mass (kg)
RCS (m²)

External: N2YO · Heavens-Above

§ Orbital elements

Epoch: 2026-05-09T16:44:47.411808Z

Period
99.76 min
Inclination
98.1640°
Eccentricity
0.0014292
Mean motion
14.43433511 rev/d
Perigee alt
737.0 km
Apogee alt
757.4 km
Semi-major
7,125.3 km
B*
1.8026e-4
RAAN
122.9130°
Arg perigee
71.7394°
Mean anomaly
288.5351°
Rev number
55,515

§ Raw data

UNKNOWN1 89261U          26129.69777097  .00000568  00000+0  18026-3 0  99962 89261  98.1640 122.9130 0014292  71.7394 288.5351 14.43433511555155

JSON: /api/v1/satellites/89261 · /tle

For live sub-satellite position, see the globe view (requires WebGL).

§ Visibility from observer

Set your observer location to see the next 7 days of passes ≥ 10°. The values pass through the URL so the page stays shareable.

No JS? Fill the form by hand. The geolocation button needs JavaScript.